QPF
0.00 0.00 0.00 0.00 0.00 0.00 0.00 0.00 0.01 0.00 0.00 0.01 0.01 0.00 0.00 0.00 0.01 0.02 0.02 0.00 0.02 0.04 0.03 0.02 0.00 0.01 0.00 0.00 0.02 0.02 0.04 0.07 0.04 0.02 0.00 0.00 0.00 0.00 0.00 0.00 0.00 0.00 0.00
0.00 0.00 0.00 0.00 0.00 0.00 0.00 0.02 0.01 0.01 0.01 0.00 0.00 0.00 0.00 0.01 0.00 0.01 0.01 0.01 0.00 0.01 0.04 0.01 0.00 0.00 0.01 0.00 0.00 0.00 0.01 0.02 0.01 0.00 0.00 0.00 0.00 0.00 0.00 0.00 0.00 0.00 0.00
0.00 0.00 0.00 0.00 0.00 0.00 0.00 0.01 0.00 0.00 0.00 0.00 0.00 0.00 0.00 0.01 0.01 0.00 0.00 0.01 0.01 0.01 0.01 0.01 0.00 0.00 0.00 0.00 0.00 0.00 0.00 0.00 0.00 0.00 0.00 0.00 0.00 0.00 0.00 0.00 0.00 0.00 0.00
0.00 0.00 0.00 0.00 0.00 0.00 0.00 0.00 0.00 0.00 0.00 0.00 0.00 0.00 0.00 0.00 0.00 0.00 0.00 0.00 0.01 0.00 0.00 0.02 0.00 0.01 0.02 0.00 0.01 0.01 0.00 0.00 0.00 0.00 0.00 0.00 0.00 0.00 0.00 0.00 0.00 0.00 0.00
0.00 0.00 0.00 0.00 0.00 0.00 0.00 0.00 0.00 0.00 0.00 0.00 0.00 0.00 0.00 0.00 0.00 0.00 0.00 0.00 0.00 0.00 0.00 0.01 0.01 0.02 0.03 0.00 0.03 0.03 0.02 0.00 0.00 0.00 0.00 0.01 0.03 0.00 0.00 0.00 0.00 0.00 0.00
0.00 0.00 0.00 0.00 0.00 0.00 0.00 0.00 0.00 0.00 0.00 0.00 0.00 0.00 0.00 0.00 0.00 0.00 0.00 0.00 0.00 0.00 0.00 0.00 0.00 0.01 0.01 0.01 0.04 0.01 0.04 0.01 0.00 0.00 0.01 0.01 0.05 0.03 0.01 0.00 0.00 0.00 0.00
0.00 0.00 0.00 0.00 0.00 0.00 0.00 0.00 0.00 0.00 0.00 0.00 0.00 0.00 0.00 0.00 0.00 0.00 0.00 0.00 0.00 0.00 0.00 0.00 0.00 0.00 0.00 0.03 0.02 0.04 0.02 0.00 0.00 0.00 0.00 0.00 0.01 0.01 0.02 0.00 0.00 0.00 0.00
0.00 0.00 0.00 0.00 0.00 0.00 0.00 0.00 0.00 0.00 0.00 0.00 0.00 0.00 0.00 0.00 0.00 0.00 0.00 0.00 0.00 0.00 0.00 0.00 0.00 0.00 0.00 0.01 0.01 0.04 0.00 0.00 0.00 0.00 0.00 0.00 0.00 0.00 0.01 0.00 0.00 0.00 0.00
0.00 0.00 0.00 0.00 0.00 0.00 0.00 0.00 0.00 0.00 0.00 0.00 0.00 0.00 0.00 0.00 0.00 0.00 0.00 0.00 0.00 0.00 0.00 0.00 0.00 0.00 0.01 0.00 0.00 0.01 0.00 0.00 0.00 0.00 0.00 0.00 0.00 0.01 0.01 0.00 0.00 0.00 0.00
0.00 0.00 0.00 0.00 0.00 0.01 0.01 0.00 0.00 0.00 0.00 0.00 0.00 0.00 0.00 0.00 0.00 0.00 0.00 0.00 0.00 0.00 0.00 0.00 0.00 0.00 0.00 0.00 0.00 0.00 0.00 0.00 0.00 0.00 0.00 0.00 0.00 0.01 0.00 0.01 0.02 0.01 0.01
0.00 0.00 0.00 0.00 0.00 0.00 0.01 0.00 0.00 0.00 0.00 0.00 0.00 0.00 0.00 0.00 0.00 0.00 0.00 0.00 0.00 0.00 0.00 0.00 0.00 0.00 0.00 0.00 0.00 0.00 0.00 0.00 0.00 0.00 0.00 0.00 0.00 0.00 0.00 0.00 0.00 0.00 0.01
0.00 0.00 0.00 0.00 0.00 0.00 0.00 0.00 0.00 0.00 0.00 0.00 0.00 0.00 0.00 0.00 0.00 0.00 0.00 0.00 0.00 0.00 0.00 0.00 0.00 0.00 0.00 0.00 0.00 0.00 0.00 0.00 0.00 0.00 0.00 0.00 0.00 0.00 0.00 0.00 0.00 0.00 0.00
0.00 0.00 0.00 0.00 0.00 0.00 0.00 0.00 0.02 0.02 0.00 0.00 0.00 0.00 0.00 0.00 0.00 0.00 0.00 0.00 0.00 0.00 0.00 0.00 0.00 0.00 0.00 0.00 0.00 0.00 0.00 0.00 0.00 0.00 0.00 0.00 0.00 0.00 0.00 0.00 0.00 0.00 0.00
0.00 0.00 0.00 0.00 0.00 0.00 0.00 0.01 0.01 0.04 0.04 0.02 0.00 0.00 0.00 0.00 0.00 0.00 0.00 0.00 0.00 0.00 0.00 0.00 0.00 0.00 0.00 0.00 0.00 0.00 0.00 0.00 0.00 0.00 0.00 0.00 0.00 0.00 0.00 0.00 0.00 0.00 0.00
0.00 0.00 0.00 0.00 0.00 0.00 0.01 0.01 0.01 0.02 0.04 0.05 0.03 0.02 0.00 0.00 0.00 0.00 0.00 0.00 0.00 0.00 0.00 0.00 0.00 0.00 0.00 0.00 0.00 0.00 0.00 0.00 0.00 0.00 0.00 0.00 0.00 0.00 0.00 0.00 0.00 0.00 0.00
0.00 0.00 0.00 0.00 0.00 0.00 0.00 0.00 0.00 0.00 0.01 0.01 0.01 0.02 0.03 0.02 0.02 0.01 0.00 0.00 0.00 0.00 0.00 0.00 0.00 0.00 0.00 0.00 0.00 0.00 0.00 0.00 0.00 0.00 0.00 0.00 0.00 0.00 0.00 0.00 0.00 0.00 0.00
0.00 0.00 0.00 0.00 0.00 0.00 0.00 0.00 0.00 0.00 0.00 0.00 0.00 0.00 0.00 0.03 0.07 0.08 0.05 0.01 0.00 0.00 0.00 0.00 0.00 0.00 0.00 0.00 0.00 0.00 0.00 0.00 0.00 0.00 0.00 0.00 0.00 0.00 0.00 0.00 0.00 0.00 0.00
0.00 0.00 0.00 0.00 0.00 0.00 0.00 0.00 0.00 0.00 0.00 0.00 0.00 0.00 0.00 0.01 0.02 0.04 0.07 0.09 0.04 0.01 0.00 0.00 0.00 0.00 0.00 0.00 0.00 0.00 0.00 0.00 0.00 0.00 0.00 0.00 0.00 0.00 0.00 0.00 0.00 0.00 0.00
0.00 0.00 0.00 0.00 0.00 0.00 0.00 0.00 0.00 0.00 0.00 0.00 0.00 0.00 0.00 0.00 0.00 0.00 0.03 0.07 0.07 0.03 0.02 0.00 0.00 0.00 0.00 0.00 0.00 0.00 0.00 0.00 0.00 0.00 0.00 0.00 0.00 0.00 0.00 0.00 0.00 0.00 0.00
0.00 0.00 0.00 0.00 0.00 0.00 0.00 0.00 0.00 0.00 0.00 0.00 0.00 0.00 0.00 0.00 0.00 0.00 0.00 0.03 0.05 0.06 0.05 0.02 0.00 0.00 0.00 0.00 0.00 0.00 0.00 0.00 0.00 0.00 0.00 0.00 0.00 0.00 0.00 0.00 0.00 0.00 0.00
0.00 0.00 0.00 0.00 0.00 0.00 0.00 0.00 0.00 0.00 0.00 0.00 0.00 0.00 0.00 0.00 0.00 0.00 0.00 0.00 0.01 0.04 0.06 0.06 0.04 0.01 0.00 0.00 0.00 0.00 0.00 0.00 0.00 0.00 0.00 0.00 0.00 0.00 0.00 0.00 0.00 0.00 0.00
0.00 0.00 0.00 0.00 0.00 0.00 0.00 0.00 0.00 0.00 0.00 0.00 0.00 0.00 0.00 0.00 0.00 0.00 0.00 0.00 0.00 0.00 0.02 0.05 0.06 0.05 0.03 0.01 0.01 0.00 0.00 0.00 0.00 0.00 0.00 0.00 0.00 0.00 0.00 0.00 0.00 0.00 0.00
0.00 0.00 0.00 0.00 0.00 0.00 0.00 0.00 0.00 0.00 0.00 0.00 0.00 0.00 0.00 0.00 0.00 0.00 0.00 0.00 0.00 0.00 0.00 0.01 0.03 0.04 0.05 0.04 0.03 0.01 0.00 0.00 0.00 0.00 0.00 0.00 0.00 0.00 0.00 0.00 0.00 0.00 0.00
0.00 0.00 0.00 0.00 0.00 0.00 0.00 0.00 0.00 0.00 0.00 0.00 0.00 0.00 0.00 0.00 0.00 0.00 0.00 0.00 0.00 0.00 0.00 0.00 0.00 0.01 0.02 0.02 0.02 0.01 0.01 0.00 0.00 0.00 0.00 0.00 0.00 0.00 0.00 0.00 0.00 0.00 0.00
0.00 0.00 0.00 0.00 0.00 0.00 0.00 0.00 0.00 0.00 0.00 0.00 0.00 0.00 0.00 0.00 0.00 0.00 0.00 0.00 0.00 0.00 0.00 0.00 0.00 0.00 0.00 0.01 0.01 0.01 0.01 0.01 0.00 0.00 0.00 0.00 0.00 0.00 0.00 0.00 0.00 0.00 0.00
0.00 0.00 0.00 0.00 0.00 0.00 0.00 0.00 0.00 0.00 0.00 0.00 0.00 0.00 0.00 0.00 0.00 0.00 0.00 0.00 0.00 0.00 0.00 0.00 0.00 0.00 0.00 0.00 0.00 0.00 0.00 0.00 0.00 0.00 0.00 0.00 0.00 0.00 0.00 0.00 0.00 0.00 0.00
MSLP
1013.99 1014.31 1015.02 1015.22 1015.43 1015.49 1015.71 1015.73 1015.81 1015.87 1015.85 1015.91 1016.01 1015.95 1016.02 1015.84 1015.76 1015.67 1015.57 1015.49 1015.33 1015.29 1015.12 1015.05 1015.01 1014.87 1014.82 1014.79 1014.79 1014.82 1014.86 1014.78 1014.74 1014.91 1015.05 1015.17 1015.16 1015.19 1015.29 1015.29 1014.97 1015.13 1015.44
1013.53 1014.15 1015.14 1015.38 1015.58 1015.73 1015.89 1015.92 1015.94 1016.11 1016.20 1016.26 1016.31 1016.26 1016.24 1016.11 1016.03 1015.91 1015.86 1015.74 1015.68 1015.56 1015.43 1015.32 1015.34 1015.25 1015.20 1015.16 1015.11 1015.13 1015.15 1015.25 1015.29 1015.34 1015.31 1015.37 1015.51 1015.53 1015.58 1015.61 1015.46 1015.60 1015.70
1013.86 1014.19 1014.94 1015.52 1015.64 1015.85 1015.80 1016.05 1016.22 1016.36 1016.39 1016.51 1016.58 1016.57 1016.56 1016.46 1016.24 1016.07 1015.99 1016.05 1015.97 1015.87 1015.76 1015.68 1015.63 1015.58 1015.57 1015.50 1015.53 1015.52 1015.53 1015.60 1015.64 1015.68 1015.37 1014.74 1015.34 1015.82 1015.82 1015.89 1015.85 1015.89 1015.92
1013.91 1014.26 1014.68 1015.69 1015.75 1015.87 1016.02 1016.25 1016.47 1016.60 1016.60 1016.59 1016.73 1016.73 1016.83 1016.69 1016.57 1016.42 1016.28 1016.13 1016.17 1016.11 1016.12 1016.03 1015.93 1015.83 1015.79 1015.83 1015.76 1015.85 1015.90 1015.93 1015.97 1015.68 1014.88 1014.71 1015.31 1016.06 1016.03 1016.02 1016.00 1016.06 1016.11
1013.98 1014.35 1014.95 1015.81 1015.97 1016.11 1016.15 1016.29 1016.54 1016.70 1016.78 1016.78 1016.77 1016.89 1016.89 1016.84 1016.83 1016.74 1016.58 1016.40 1016.57 1016.45 1016.44 1016.38 1016.24 1016.14 1016.11 1016.06 1016.10 1016.17 1016.22 1016.26 1016.11 1015.54 1015.31 1015.51 1015.49 1016.09 1016.21 1016.21 1016.23 1016.33 1016.35
1014.25 1014.53 1015.41 1015.81 1015.96 1016.16 1016.24 1016.38 1016.58 1016.77 1016.86 1016.96 1017.05 1017.07 1016.99 1016.95 1017.08 1016.99 1016.78 1016.75 1016.68 1016.68 1016.75 1016.60 1016.51 1016.39 1016.26 1016.20 1016.23 1016.33 1016.46 1016.46 1016.11 1015.61 1015.64 1015.92 1015.86 1016.44 1016.45 1016.49 1016.53 1016.55 1016.57
1014.51 1014.77 1015.34 1015.90 1015.99 1016.08 1016.20 1016.39 1016.57 1016.74 1016.88 1016.99 1017.04 1017.09 1017.06 1017.06 1017.15 1017.17 1017.02 1016.97 1016.91 1016.96 1016.83 1016.78 1016.83 1016.57 1016.40 1016.37 1016.28 1016.53 1016.66 1016.54 1015.77 1015.95 1015.92 1015.93 1016.09 1016.65 1016.66 1016.62 1016.62 1016.67 1016.66
1014.77 1015.01 1015.12 1015.92 1016.12 1016.34 1016.51 1016.65 1016.77 1016.96 1017.12 1017.24 1017.29 1017.29 1017.24 1017.15 1017.20 1017.23 1017.24 1017.20 1017.15 1017.09 1017.03 1017.09 1016.97 1016.69 1016.51 1016.48 1016.44 1016.63 1016.75 1016.60 1016.02 1016.09 1016.25 1016.17 1016.82 1016.79 1016.74 1016.71 1016.75 1016.76 1016.78
1014.92 1015.18 1015.22 1015.28 1015.95 1016.51 1016.59 1016.71 1016.83 1017.01 1017.18 1017.36 1017.47 1017.54 1017.55 1017.52 1017.48 1017.47 1017.38 1017.26 1017.21 1017.18 1017.15 1017.17 1017.09 1016.98 1016.77 1016.68 1016.59 1016.77 1016.90 1016.80 1016.03 1016.05 1016.20 1016.01 1016.93 1016.77 1016.80 1016.77 1016.81 1016.83 1016.88
1015.41 1015.47 1015.22 1015.30 1015.25 1016.00 1016.13 1016.51 1016.73 1016.89 1017.05 1017.20 1017.34 1017.43 1017.52 1017.60 1017.61 1017.65 1017.68 1017.60 1017.49 1017.36 1017.28 1017.17 1017.06 1017.03 1017.08 1016.94 1016.83 1016.91 1017.07 1016.90 1016.21 1016.52 1016.31 1016.37 1017.02 1016.93 1016.95 1016.84 1016.89 1016.82 1016.89
1015.79 1015.63 1015.48 1015.38 1015.20 1015.31 1015.46 1015.67 1016.43 1016.68 1016.90 1017.11 1017.17 1017.30 1017.40 1016.94 1016.91 1017.18 1017.32 1017.74 1017.76 1017.71 1017.58 1017.41 1017.20 1017.10 1017.08 1017.02 1016.95 1017.06 1016.99 1016.20 1016.39 1016.25 1016.31 1016.99 1017.09 1016.97 1017.04 1017.09 1017.11 1017.04 1016.97
1016.38 1016.32 1016.08 1015.29 1015.23 1015.22 1015.39 1015.47 1015.40 1015.51 1015.75 1016.21 1015.94 1016.16 1016.27 1016.33 1016.63 1017.17 1017.43 1017.74 1017.71 1017.66 1017.57 1017.47 1017.33 1017.25 1017.05 1016.09 1016.23 1016.92 1016.51 1016.79 1016.89 1016.63 1016.23 1017.14 1017.17 1017.08 1017.15 1017.17 1017.22 1017.17 1017.14
1017.17 1017.15 1016.87 1016.50 1016.16 1016.24 1015.70 1015.83 1015.60 1015.64 1015.32 1015.36 1015.56 1015.78 1015.94 1016.23 1016.36 1016.54 1016.48 1016.73 1016.81 1017.21 1016.87 1017.14 1017.12 1016.75 1016.50 1016.30 1016.09 1016.04 1016.11 1015.95 1016.07 1016.70 1016.68 1017.19 1017.25 1017.17 1017.23 1017.27 1017.29 1017.26 1017.24
1017.60 1017.61 1017.26 1016.77 1016.09 1015.84 1016.27 1016.48 1016.43 1016.22 1015.85 1015.43 1015.46 1015.74 1015.79 1016.00 1016.03 1016.07 1016.11 1016.17 1016.46 1016.36 1016.37 1016.49 1016.37 1016.48 1016.68 1016.57 1016.02 1015.83 1015.67 1015.65 1015.72 1015.77 1016.09 1017.13 1017.18 1017.17 1017.23 1017.31 1017.32 1017.38 1017.40
1018.13 1017.99 1017.70 1017.22 1016.57 1016.00 1015.99 1016.72 1016.72 1016.71 1016.68 1016.11 1016.00 1015.70 1016.00 1016.13 1015.80 1015.71 1015.76 1015.86 1016.05 1016.10 1016.08 1015.86 1016.03 1016.06 1016.19 1016.07 1015.95 1015.80 1015.48 1015.44 1015.49 1015.65 1015.95 1016.87 1017.04 1017.06 1017.10 1017.26 1017.34 1017.38 1017.46
1018.74 1018.53 1018.31 1017.84 1017.37 1016.93 1016.75 1016.89 1017.27 1017.20 1017.12 1016.97 1016.81 1016.43 1016.19 1015.90 1015.70 1016.10 1015.85 1015.68 1015.77 1015.85 1015.87 1015.71 1015.57 1015.65 1015.63 1015.66 1015.59 1015.75 1015.54 1015.43 1015.53 1015.73 1015.86 1016.17 1016.85 1016.92 1016.97 1017.11 1017.25 1017.35 1017.45
1019.25 1019.21 1018.99 1018.58 1018.02 1017.60 1017.43 1017.34 1017.21 1017.14 1017.31 1017.43 1017.40 1017.28 1017.08 1016.98 1016.72 1016.48 1016.19 1015.96 1015.41 1015.43 1015.64 1015.61 1015.46 1015.43 1015.43 1015.43 1015.35 1015.23 1015.31 1015.22 1015.32 1015.41 1015.68 1015.92 1016.09 1016.75 1016.81 1016.94 1017.14 1017.31 1017.42
1019.63 1019.45 1019.45 1019.11 1018.65 1018.35 1018.12 1017.86 1017.63 1017.53 1017.31 1017.11 1016.86 1016.73 1016.89 1016.98 1017.07 1016.92 1016.75 1016.41 1016.22 1016.02 1015.81 1015.53 1015.54 1015.46 1015.27 1015.03 1014.98 1014.90 1014.90 1015.01 1014.94 1014.99 1015.25 1015.55 1015.74 1015.75 1016.47 1016.74 1016.93 1017.09 1017.23
1020.28 1019.99 1019.82 1019.60 1019.22 1018.89 1018.59 1018.29 1018.17 1018.01 1017.76 1017.50 1017.20 1017.03 1016.88 1016.86 1016.59 1016.18 1016.09 1016.37 1016.29 1015.98 1015.61 1015.50 1015.23 1015.24 1014.94 1014.83 1014.70 1014.50 1014.57 1014.55 1014.65 1014.64 1014.72 1015.20 1015.43 1015.60 1015.64 1016.12 1016.62 1016.82 1016.96
1020.61 1020.36 1020.19 1019.91 1019.79 1019.49 1019.23 1018.91 1018.53 1018.21 1017.92 1017.76 1017.60 1017.44 1017.15 1016.87 1016.71 1016.41 1015.94 1015.67 1015.77 1016.03 1015.89 1015.34 1015.02 1014.76 1014.84 1014.49 1014.31 1014.09 1014.02 1014.16 1014.26 1014.23 1014.23 1014.44 1014.80 1015.33 1015.47 1015.57 1016.01 1016.25 1016.65
1020.80 1020.62 1020.45 1020.32 1020.18 1019.94 1019.68 1019.36 1018.99 1018.59 1018.25 1018.03 1017.76 1017.57 1017.20 1017.01 1016.74 1016.47 1015.96 1015.65 1015.46 1015.53 1015.56 1015.50 1015.14 1014.57 1014.42 1014.55 1014.36 1013.85 1013.43 1013.36 1013.38 1013.58 1013.72 1013.77 1013.97 1014.54 1014.93 1015.20 1015.43 1015.44 1015.77
1020.90 1020.88 1020.65 1020.52 1020.44 1020.28 1020.17 1019.94 1019.57 1018.92 1018.60 1018.35 1017.91 1017.53 1017.16 1016.86 1016.62 1016.32 1015.91 1015.59 1015.29 1015.11 1015.07 1015.15 1015.34 1014.79 1014.23 1014.38 1014.09 1013.79 1012.72 1012.32 1012.41 1012.31 1012.67 1012.92 1013.15 1013.63 1014.07 1014.42 1014.72 1014.94 1015.13
1020.75 1020.91 1020.93 1020.75 1020.54 1020.32 1020.26 1020.08 1019.61 1019.07 1018.51 1018.08 1017.70 1017.44 1017.08 1016.80 1016.36 1016.03 1015.73 1015.36 1015.06 1014.87 1014.64 1014.54 1014.48 1014.89 1014.66 1014.25 1014.18 1013.99 1012.98 1011.50 1010.76 1011.18 1011.52 1012.10 1012.44 1012.71 1013.20 1013.55 1013.94 1014.22 1014.55
1020.64 1020.99 1020.90 1020.71 1020.44 1020.19 1020.07 1019.81 1019.45 1018.90 1018.28 1017.88 1017.60 1017.16 1016.91 1016.41 1015.95 1015.73 1015.42 1015.12 1014.85 1014.56 1014.22 1013.97 1013.86 1013.86 1014.30 1013.95 1013.71 1013.71 1013.25 1012.46 1010.62 1010.70 1011.09 1011.57 1011.96 1012.01 1012.27 1012.74 1013.04 1013.46 1013.89
1020.55 1020.74 1020.79 1020.51 1020.10 1019.91 1019.77 1019.62 1019.21 1018.68 1018.16 1017.47 1017.02 1016.69 1016.27 1015.91 1015.48 1015.18 1014.95 1014.73 1014.48 1014.21 1013.87 1013.62 1013.47 1013.13 1013.07 1013.29 1013.42 1012.95 1012.90 1012.71 1012.15 1011.62 1010.31 1010.70 1011.42 1011.60 1011.59 1011.66 1012.19 1012.66 1013.06
1020.31 1020.55 1020.45 1020.15 1019.86 1019.71 1019.41 1019.12 1018.74 1018.22 1017.58 1016.91 1016.40 1015.95 1015.60 1015.20 1014.88 1014.67 1014.49 1014.15 1013.89 1013.76 1013.62 1013.29 1012.98 1012.78 1012.54 1012.21 1012.43 1012.42 1012.16 1011.78 1011.42 1011.58 1010.94 1010.10 1009.69 1010.06 1010.96 1011.22 1011.27 1011.80 1012.27
Thickness
5798 5795 5789 5786 5783 5781 5777 5776 5774 5772 5770 5769 5766 5765 5763 5763 5762 5761 5760 5759 5759 5758 5757 5756 5754 5754 5752 5752 5751 5749 5747 5746 5746 5744 5742 5740 5740 5739 5736 5736 5737 5735 5733
5803 5796 5788 5784 5781 5778 5775 5773 5772 5769 5767 5765 5764 5763 5762 5761 5760 5759 5758 5758 5757 5756 5756 5755 5753 5752 5751 5750 5750 5748 5747 5745 5743 5742 5741 5739 5738 5736 5735 5733 5734 5731 5730
5799 5794 5787 5782 5779 5776 5774 5771 5768 5767 5765 5763 5761 5759 5759 5758 5758 5758 5757 5755 5755 5754 5754 5753 5752 5750 5749 5749 5747 5746 5745 5743 5742 5741 5742 5745 5739 5734 5733 5732 5731 5730 5729
5796 5792 5787 5778 5776 5774 5772 5768 5765 5763 5762 5761 5759 5757 5755 5755 5755 5755 5754 5754 5753 5752 5750 5750 5749 5749 5748 5747 5746 5744 5743 5742 5740 5741 5745 5746 5740 5734 5732 5731 5730 5729 5728
5793 5789 5783 5776 5773 5770 5768 5766 5763 5761 5759 5758 5757 5755 5754 5753 5751 5751 5751 5751 5749 5749 5747 5747 5747 5746 5745 5744 5743 5742 5740 5739 5739 5742 5742 5740 5739 5734 5732 5730 5729 5727 5726
5788 5785 5778 5773 5770 5767 5765 5763 5761 5758 5757 5755 5753 5752 5751 5750 5748 5748 5747 5746 5746 5745 5744 5744 5743 5743 5744 5743 5741 5739 5737 5736 5738 5740 5739 5736 5736 5731 5730 5728 5727 5726 5725
5783 5780 5774 5769 5767 5765 5763 5760 5758 5755 5753 5751 5750 5749 5748 5747 5745 5744 5744 5743 5743 5742 5741 5741 5740 5741 5741 5741 5741 5737 5734 5734 5738 5735 5735 5734 5733 5728 5727 5727 5726 5725 5725
5777 5774 5772 5765 5763 5760 5757 5755 5753 5751 5748 5746 5744 5744 5743 5743 5742 5741 5740 5739 5739 5738 5738 5737 5737 5737 5738 5737 5737 5735 5733 5732 5735 5733 5730 5730 5726 5725 5725 5725 5724 5723 5723
5772 5769 5767 5765 5759 5754 5752 5750 5748 5746 5744 5742 5740 5739 5738 5737 5737 5736 5736 5736 5736 5735 5734 5733 5733 5733 5734 5734 5733 5731 5730 5730 5733 5732 5730 5730 5724 5724 5722 5723 5722 5721 5720
5764 5762 5763 5761 5760 5754 5752 5748 5745 5743 5740 5739 5737 5736 5734 5732 5732 5731 5730 5731 5731 5730 5730 5730 5730 5729 5728 5728 5729 5728 5725 5726 5729 5726 5727 5726 5721 5721 5720 5720 5719 5719 5718
5757 5758 5757 5757 5757 5755 5753 5750 5744 5741 5738 5735 5733 5732 5730 5732 5731 5728 5727 5723 5723 5723 5723 5724 5724 5724 5725 5724 5724 5723 5723 5726 5724 5725 5724 5719 5718 5718 5717 5716 5715 5715 5715
5745 5747 5748 5753 5753 5751 5749 5748 5747 5745 5742 5738 5738 5735 5733 5731 5728 5723 5721 5718 5717 5717 5718 5719 5720 5719 5721 5725 5724 5720 5721 5718 5717 5718 5721 5715 5714 5714 5714 5713 5712 5712 5711
5736 5737 5738 5739 5741 5740 5743 5741 5742 5740 5741 5740 5737 5734 5730 5727 5725 5722 5721 5719 5718 5715 5716 5714 5714 5716 5718 5719 5720 5719 5719 5719 5717 5712 5713 5710 5709 5709 5709 5709 5708 5708 5707
5729 5729 5732 5734 5737 5738 5734 5732 5731 5731 5732 5733 5732 5729 5727 5724 5722 5720 5718 5716 5714 5713 5712 5711 5712 5711 5710 5710 5714 5715 5716 5716 5715 5714 5712 5705 5704 5704 5704 5703 5703 5703 5702
5721 5722 5724 5727 5730 5733 5732 5725 5723 5722 5721 5723 5722 5722 5718 5716 5718 5716 5714 5712 5709 5708 5707 5708 5706 5705 5704 5705 5706 5707 5710 5710 5711 5709 5707 5701 5699 5699 5698 5697 5697 5697 5696
5714 5715 5716 5718 5720 5722 5721 5718 5714 5713 5712 5711 5710 5710 5709 5709 5709 5705 5706 5706 5703 5701 5700 5700 5700 5698 5698 5697 5699 5698 5700 5702 5701 5700 5700 5698 5694 5693 5693 5692 5691 5690 5690
5705 5705 5705 5707 5709 5711 5710 5708 5707 5706 5703 5700 5697 5696 5695 5693 5692 5692 5692 5692 5696 5695 5691 5690 5690 5690 5689 5688 5688 5690 5691 5693 5693 5693 5692 5692 5691 5688 5687 5686 5685 5684 5683
5697 5696 5695 5696 5697 5698 5697 5696 5695 5694 5693 5693 5692 5689 5686 5683 5679 5678 5677 5677 5676 5676 5678 5681 5678 5677 5678 5680 5680 5681 5681 5682 5684 5685 5684 5684 5684 5685 5682 5680 5679 5678 5677
5686 5686 5685 5685 5685 5685 5684 5683 5681 5680 5679 5678 5678 5676 5675 5672 5671 5672 5670 5666 5663 5664 5664 5664 5668 5666 5666 5666 5668 5671 5671 5673 5674 5676 5677 5675 5675 5676 5677 5675 5673 5673 5672
5676 5675 5673 5673 5671 5671 5671 5670 5670 5669 5667 5664 5661 5660 5659 5659 5657 5657 5658 5657 5654 5651 5648 5651 5652 5654 5653 5654 5656 5658 5661 5662 5663 5666 5668 5668 5668 5666 5667 5668 5667 5667 5666
5666 5663 5662 5659 5657 5655 5653 5651 5650 5649 5651 5650 5650 5648 5647 5645 5642 5640 5641 5641 5640 5638 5636 5634 5636 5639 5639 5638 5638 5644 5649 5652 5655 5656 5658 5660 5661 5659 5659 5660 5660 5663 5662
5655 5652 5650 5648 5644 5642 5638 5636 5635 5635 5632 5630 5628 5627 5627 5627 5627 5626 5626 5626 5625 5624 5623 5620 5616 5621 5626 5623 5625 5625 5634 5642 5646 5651 5650 5651 5653 5652 5653 5654 5654 5656 5657
5646 5640 5636 5634 5631 5628 5624 5621 5620 5620 5619 5617 5615 5611 5608 5606 5606 5604 5604 5606 5608 5609 5609 5607 5606 5601 5602 5605 5608 5607 5615 5630 5642 5643 5642 5641 5643 5645 5645 5647 5648 5649 5650
5636 5630 5626 5622 5619 5616 5611 5608 5605 5603 5603 5601 5598 5597 5594 5593 5592 5589 5585 5583 5583 5584 5586 5589 5590 5589 5585 5588 5592 5595 5602 5609 5626 5626 5630 5629 5631 5635 5637 5639 5641 5642 5643
5625 5618 5614 5611 5608 5603 5598 5592 5589 5587 5586 5587 5584 5581 5579 5576 5573 5570 5567 5564 5563 5563 5564 5564 5566 5570 5571 5573 5572 5580 5583 5588 5598 5604 5620 5622 5620 5623 5628 5632 5634 5636 5638
5615 5607 5602 5598 5594 5588 5583 5579 5574 5571 5570 5570 5568 5565 5562 5559 5555 5550 5545 5544 5544 5543 5543 5544 5545 5548 5551 5557 5556 5561 5568 5577 5585 5586 5594 5611 5620 5621 5618 5622 5628 5630 5631